QPF
0.00 0.00 0.00 0.00 0.00 0.00 0.00 0.00 0.00 0.00 0.00 0.00 0.00 0.00 0.00 0.00 0.00 0.02 0.00 0.00 0.00 0.00 0.00 0.00 0.00 0.00 0.00 0.00 0.00 0.00 0.00 0.01 0.00 0.00 0.01 0.00 0.00 0.00 0.00 0.00 0.00 0.00 0.00 0.00 0.00 0.00 0.00 0.00 0.00
0.00 0.00 0.00 0.00 0.00 0.00 0.00 0.00 0.00 0.00 0.00 0.00 0.00 0.00 0.00 0.00 0.00 0.00 0.00 0.00 0.00 0.00 0.00 0.00 0.00 0.00 0.00 0.00 0.00 0.00 0.00 0.02 0.00 0.00 0.00 0.00 0.00 0.00 0.00 0.00 0.00 0.00 0.00 0.00 0.00 0.00 0.00 0.00 0.00
0.00 0.00 0.00 0.00 0.00 0.00 0.00 0.00 0.00 0.00 0.00 0.00 0.00 0.00 0.00 0.00 0.00 0.00 0.00 0.00 0.00 0.00 0.00 0.00 0.00 0.01 0.01 0.00 0.00 0.00 0.00 0.02 0.00 0.00 0.02 0.01 0.00 0.00 0.00 0.00 0.00 0.00 0.00 0.00 0.00 0.00 0.00 0.00 0.00
0.00 0.00 0.00 0.00 0.00 0.00 0.00 0.00 0.00 0.00 0.00 0.00 0.00 0.00 0.00 0.00 0.00 0.00 0.00 0.00 0.00 0.00 0.00 0.00 0.00 0.00 0.00 0.00 0.00 0.00 0.00 0.00 0.00 0.00 0.00 0.00 0.00 0.00 0.00 0.00 0.00 0.00 0.00 0.00 0.00 0.00 0.00 0.00 0.00
0.00 0.00 0.00 0.00 0.00 0.00 0.00 0.00 0.00 0.00 0.00 0.00 0.00 0.00 0.00 0.00 0.00 0.00 0.00 0.00 0.00 0.00 0.00 0.00 0.00 0.00 0.00 0.00 0.00 0.01 0.00 0.01 0.01 0.00 0.00 0.02 0.06 0.02 0.00 0.00 0.00 0.00 0.00 0.00 0.01 0.00 0.00 0.00 0.00
0.00 0.00 0.00 0.00 0.00 0.00 0.00 0.00 0.00 0.00 0.00 0.00 0.00 0.00 0.00 0.00 0.00 0.00 0.00 0.00 0.00 0.00 0.00 0.00 0.00 0.00 0.00 0.00 0.00 0.00 0.00 0.01 0.00 0.00 0.00 0.01 0.04 0.03 0.00 0.01 0.00 0.00 0.00 0.00 0.00 0.00 0.00 0.00 0.00
0.00 0.00 0.00 0.00 0.00 0.00 0.00 0.00 0.00 0.00 0.00 0.00 0.00 0.00 0.00 0.00 0.00 0.00 0.00 0.00 0.00 0.00 0.00 0.00 0.00 0.00 0.00 0.00 0.00 0.00 0.00 0.00 0.00 0.00 0.00 0.00 0.01 0.01 0.01 0.01 0.01 0.00 0.00 0.00 0.00 0.00 0.00 0.00 0.00
0.00 0.00 0.00 0.00 0.00 0.00 0.00 0.00 0.00 0.00 0.00 0.00 0.00 0.00 0.00 0.00 0.00 0.00 0.00 0.00 0.00 0.00 0.00 0.00 0.00 0.00 0.00 0.00 0.00 0.00 0.00 0.00 0.00 0.00 0.00 0.00 0.00 0.00 0.01 0.00 0.02 0.01 0.00 0.00 0.00 0.00 0.00 0.00 0.00
0.00 0.00 0.00 0.00 0.00 0.00 0.00 0.00 0.00 0.00 0.00 0.00 0.00 0.00 0.00 0.00 0.00 0.00 0.00 0.00 0.00 0.00 0.00 0.00 0.00 0.00 0.00 0.00 0.00 0.00 0.00 0.00 0.00 0.00 0.00 0.00 0.00 0.00 0.00 0.00 0.01 0.01 0.00 0.00 0.00 0.00 0.00 0.00 0.00
0.00 0.00 0.00 0.00 0.00 0.00 0.00 0.00 0.00 0.00 0.00 0.00 0.00 0.00 0.00 0.00 0.00 0.00 0.00 0.00 0.00 0.00 0.00 0.00 0.00 0.00 0.00 0.00 0.00 0.00 0.00 0.00 0.00 0.00 0.00 0.00 0.00 0.00 0.01 0.00 0.01 0.01 0.00 0.00 0.00 0.00 0.00 0.02 0.00
0.00 0.00 0.00 0.00 0.00 0.00 0.00 0.00 0.00 0.00 0.00 0.00 0.00 0.00 0.00 0.00 0.00 0.00 0.00 0.00 0.00 0.00 0.00 0.00 0.00 0.00 0.00 0.00 0.00 0.00 0.00 0.00 0.00 0.00 0.00 0.00 0.00 0.01 0.01 0.00 0.00 0.00 0.00 0.00 0.00 0.00 0.00 0.00 0.01
0.00 0.00 0.00 0.00 0.00 0.00 0.00 0.00 0.00 0.00 0.00 0.00 0.00 0.00 0.00 0.00 0.00 0.00 0.00 0.00 0.00 0.00 0.00 0.00 0.00 0.00 0.00 0.00 0.00 0.00 0.00 0.00 0.00 0.00 0.00 0.00 0.00 0.01 0.03 0.03 0.01 0.01 0.01 0.01 0.01 0.01 0.01 0.00 0.00
0.00 0.00 0.00 0.00 0.00 0.00 0.00 0.00 0.00 0.00 0.00 0.00 0.00 0.00 0.00 0.00 0.00 0.00 0.00 0.00 0.00 0.00 0.00 0.00 0.01 0.00 0.00 0.00 0.00 0.00 0.00 0.00 0.00 0.00 0.00 0.00 0.00 0.00 0.03 0.02 0.03 0.02 0.02 0.03 0.04 0.06 0.06 0.04 0.00
0.00 0.00 0.00 0.00 0.00 0.00 0.00 0.00 0.00 0.00 0.00 0.00 0.00 0.00 0.00 0.00 0.00 0.00 0.00 0.00 0.00 0.00 0.00 0.00 0.01 0.01 0.00 0.00 0.02 0.01 0.03 0.03 0.02 0.00 0.00 0.00 0.00 0.00 0.01 0.01 0.02 0.04 0.07 0.08 0.09 0.10 0.18 0.23 0.04
0.00 0.00 0.00 0.00 0.00 0.00 0.00 0.00 0.00 0.00 0.00 0.00 0.00 0.00 0.00 0.00 0.00 0.00 0.00 0.00 0.00 0.00 0.00 0.00 0.00 0.07 0.18 0.23 0.16 0.22 0.06 0.06 0.03 0.00 0.00 0.00 0.00 0.00 0.00 0.01 0.03 0.06 0.05 0.09 0.09 0.05 0.11 0.11 0.01
0.00 0.00 0.00 0.00 0.00 0.00 0.00 0.00 0.00 0.00 0.00 0.00 0.00 0.00 0.00 0.00 0.00 0.00 0.00 0.00 0.00 0.00 0.00 0.00 0.00 0.03 0.11 0.16 0.07 0.09 0.03 0.04 0.06 0.01 0.00 0.00 0.00 0.00 0.01 0.02 0.06 0.04 0.10 0.29 0.34 0.35 0.35 0.18 0.03
0.00 0.00 0.00 0.00 0.00 0.00 0.00 0.00 0.00 0.00 0.00 0.00 0.00 0.00 0.00 0.00 0.00 0.00 0.00 0.00 0.00 0.00 0.00 0.00 0.00 0.00 0.00 0.04 0.17 0.08 0.03 0.11 0.12 0.04 0.01 0.00 0.00 0.00 0.01 0.03 0.05 0.06 0.10 0.39 0.41 0.66 0.22 0.05 0.01
0.00 0.00 0.00 0.00 0.00 0.00 0.00 0.00 0.00 0.00 0.00 0.00 0.00 0.00 0.00 0.00 0.00 0.00 0.00 0.00 0.00 0.00 0.00 0.00 0.00 0.00 0.00 0.00 0.01 0.19 0.10 0.29 0.48 0.42 0.11 0.00 0.00 0.00 0.00 0.03 0.07 0.22 0.09 0.03 0.01 0.01 0.00 0.00 0.00
0.00 0.00 0.00 0.00 0.00 0.00 0.00 0.00 0.00 0.00 0.00 0.00 0.00 0.00 0.00 0.00 0.00 0.00 0.00 0.00 0.00 0.00 0.00 0.00 0.00 0.00 0.00 0.00 0.01 0.05 0.02 0.05 0.18 0.41 0.20 0.01 0.00 0.00 0.00 0.01 0.03 0.05 0.01 0.00 0.00 0.00 0.00 0.00 0.00
0.00 0.00 0.00 0.00 0.00 0.00 0.00 0.00 0.00 0.00 0.00 0.00 0.00 0.00 0.00 0.00 0.00 0.00 0.00 0.00 0.00 0.00 0.00 0.00 0.00 0.00 0.00 0.00 0.00 0.01 0.04 0.08 0.06 0.10 0.12 0.02 0.00 0.00 0.00 0.00 0.00 0.01 0.00 0.00 0.00 0.00 0.00 0.00 0.00
0.00 0.00 0.00 0.00 0.00 0.00 0.00 0.00 0.00 0.00 0.00 0.00 0.00 0.00 0.00 0.00 0.00 0.00 0.00 0.00 0.00 0.00 0.00 0.00 0.00 0.00 0.00 0.00 0.00 0.01 0.16 0.27 0.27 0.43 0.57 0.54 0.23 0.01 0.00 0.00 0.00 0.00 0.00 0.00 0.00 0.00 0.00 0.00 0.00
0.00 0.00 0.00 0.00 0.00 0.00 0.00 0.00 0.00 0.00 0.00 0.00 0.00 0.00 0.00 0.00 0.00 0.00 0.00 0.00 0.00 0.00 0.00 0.00 0.00 0.00 0.00 0.00 0.00 0.03 0.05 0.13 0.05 0.16 0.27 0.51 0.42 0.05 0.00 0.00 0.00 0.00 0.00 0.00 0.00 0.00 0.00 0.00 0.00
0.00 0.00 0.00 0.00 0.00 0.00 0.00 0.00 0.00 0.00 0.00 0.00 0.00 0.00 0.00 0.00 0.00 0.00 0.00 0.00 0.00 0.00 0.00 0.00 0.00 0.00 0.00 0.00 0.00 0.03 0.02 0.04 0.09 0.19 0.23 0.23 0.17 0.08 0.00 0.00 0.00 0.00 0.00 0.00 0.00 0.00 0.00 0.00 0.00
0.00 0.00 0.00 0.00 0.00 0.00 0.00 0.00 0.00 0.00 0.00 0.00 0.00 0.00 0.00 0.00 0.00 0.00 0.00 0.00 0.00 0.00 0.00 0.00 0.00 0.00 0.00 0.00 0.00 0.01 0.02 0.03 0.11 0.27 0.49 0.65 0.51 0.18 0.05 0.01 0.01 0.00 0.00 0.00 0.00 0.00 0.00 0.01 0.00
0.00 0.00 0.00 0.00 0.00 0.00 0.00 0.00 0.00 0.00 0.00 0.00 0.00 0.00 0.00 0.00 0.00 0.00 0.00 0.00 0.00 0.00 0.00 0.00 0.00 0.00 0.00 0.01 0.00 0.01 0.06 0.08 0.11 0.12 0.17 0.39 0.89 1.05 0.24 0.02 0.00 0.00 0.00 0.00 0.00 0.00 0.00 0.00 0.00
0.00 0.00 0.00 0.00 0.00 0.00 0.00 0.00 0.00 0.00 0.00 0.00 0.00 0.00 0.00 0.00 0.00 0.00 0.00 0.00 0.00 0.00 0.00 0.00 0.00 0.00 0.00 0.00 0.00 0.01 0.05 0.15 0.04 0.02 0.17 0.58 0.45 0.57 0.39 0.08 0.05 0.03 0.00 0.00 0.00 0.00 0.00 0.00 0.00
0.00 0.00 0.00 0.00 0.00 0.00 0.00 0.00 0.00 0.00 0.00 0.00 0.00 0.00 0.00 0.00 0.00 0.00 0.00 0.00 0.00 0.00 0.00 0.00 0.00 0.00 0.00 0.00 0.00 0.03 0.03 0.09 0.07 0.20 0.31 0.43 0.63 0.73 0.89 0.38 0.08 0.01 0.00 0.00 0.00 0.00 0.00 0.00 0.00
0.00 0.00 0.00 0.00 0.05 0.04 0.00 0.00 0.01 0.05 0.05 0.00 0.00 0.00 0.00 0.00 0.00 0.00 0.00 0.00 0.00 0.00 0.00 0.00 0.00 0.00 0.00 0.01 0.00 0.00 0.01 0.06 0.12 0.23 0.13 0.19 0.36 1.22 1.73 1.51 0.24 0.06 0.02 0.00 0.00 0.00 0.00 0.00 0.01
0.00 0.00 0.00 0.00 0.01 0.03 0.02 0.01 0.00 0.03 0.02 0.01 0.00 0.00 0.00 0.00 0.00 0.00 0.00 0.00 0.00 0.00 0.00 0.00 0.00 0.00 0.00 0.01 0.01 0.03 0.03 0.03 0.02 0.13 0.17 0.19 0.10 0.14 0.41 0.57 0.28 0.08 0.00 0.00 0.00 0.00 0.00 0.00 0.00
0.00 0.00 0.00 0.02 0.03 0.05 0.07 0.03 0.00 0.00 0.00 0.00 0.00 0.00 0.00 0.00 0.00 0.00 0.00 0.00 0.00 0.00 0.00 0.00 0.00 0.00 0.00 0.00 0.10 0.13 0.13 0.05 0.03 0.04 0.04 0.03 0.01 0.01 0.03 0.13 0.24 0.12 0.00 0.00 0.00 0.00 0.00 0.00 0.00
MSLP
1008.44 1007.66 1007.52 1007.80 1007.99 1006.66 1004.99 1003.88 1003.14 1002.99 1002.72 1002.76 1002.86 1002.96 1003.10 1003.53 1004.38 1006.39 1006.69 1006.69 1006.84 1007.52 1008.37 1008.85 1009.02 1009.43 1009.92 1010.20 1010.57 1010.70 1010.85 1011.07 1011.25 1011.50 1011.55 1011.71 1011.88 1012.07 1012.10 1012.25 1012.22 1012.19 1012.21 1012.20 1012.27 1012.31 1012.39 1012.42 1012.43
1008.31 1007.49 1007.46 1007.18 1006.91 1005.68 1004.37 1003.55 1003.23 1003.11 1003.10 1003.01 1002.96 1002.79 1003.04 1004.02 1004.43 1006.08 1006.69 1006.86 1006.83 1007.29 1008.16 1008.73 1009.15 1009.48 1009.86 1010.19 1010.55 1010.79 1010.83 1011.11 1011.36 1011.54 1011.63 1011.80 1012.00 1012.09 1012.30 1012.47 1012.48 1012.48 1012.49 1012.48 1012.57 1012.69 1012.65 1012.72 1012.62
1008.54 1007.45 1007.46 1006.65 1005.89 1004.88 1004.23 1003.51 1003.31 1003.27 1003.20 1003.11 1002.82 1002.67 1003.06 1004.39 1004.60 1005.45 1006.25 1006.74 1006.87 1007.24 1007.97 1008.68 1009.35 1009.65 1009.97 1010.28 1010.57 1010.82 1010.91 1011.07 1011.29 1011.63 1011.74 1011.86 1012.07 1012.16 1012.20 1012.49 1012.70 1012.75 1012.84 1012.90 1012.90 1012.96 1013.04 1013.07 1012.92
1007.79 1007.48 1007.25 1006.60 1005.44 1004.41 1003.85 1003.61 1003.73 1003.64 1003.24 1003.35 1003.04 1003.08 1003.75 1004.49 1004.58 1005.43 1006.18 1006.47 1006.61 1006.99 1007.49 1008.46 1009.03 1009.57 1009.93 1010.23 1010.56 1010.83 1010.92 1011.16 1011.26 1011.46 1011.71 1011.95 1012.12 1012.29 1012.33 1012.47 1012.63 1012.85 1012.90 1013.03 1013.15 1013.23 1013.29 1013.27 1013.18
1007.66 1007.35 1006.94 1006.06 1004.84 1004.13 1003.98 1004.07 1004.29 1004.02 1003.58 1003.55 1003.63 1003.54 1004.30 1004.97 1005.06 1005.45 1006.24 1006.60 1006.77 1007.18 1007.76 1008.46 1008.79 1009.35 1009.79 1010.14 1010.51 1010.72 1010.96 1011.12 1011.33 1011.54 1011.71 1011.88 1012.13 1012.31 1012.41 1012.68 1012.73 1012.90 1012.92 1012.96 1013.15 1013.30 1013.31 1013.44 1013.39
1007.70 1007.30 1006.77 1005.70 1004.71 1004.26 1004.26 1004.39 1004.49 1004.32 1004.02 1003.95 1004.14 1004.02 1004.78 1005.11 1005.41 1005.80 1006.25 1006.46 1006.55 1007.07 1007.71 1008.34 1008.89 1009.40 1009.83 1010.07 1010.27 1010.52 1010.81 1011.06 1011.37 1011.52 1011.58 1011.78 1011.99 1012.16 1012.18 1012.55 1012.85 1012.94 1013.04 1013.07 1013.15 1013.25 1013.30 1013.35 1013.51
1007.91 1007.63 1006.87 1005.83 1005.13 1004.53 1004.44 1004.81 1004.91 1004.96 1004.72 1004.92 1004.88 1004.82 1005.43 1005.53 1005.72 1005.79 1006.10 1006.27 1006.57 1007.00 1007.64 1008.48 1009.18 1009.52 1009.78 1009.92 1010.29 1010.50 1010.67 1010.89 1011.16 1011.44 1011.54 1011.71 1011.79 1012.02 1012.21 1012.46 1012.61 1012.68 1013.01 1013.25 1013.25 1013.33 1013.43 1013.47 1013.55
1008.21 1007.81 1006.97 1006.03 1005.47 1005.27 1005.34 1005.33 1005.42 1005.53 1005.39 1005.25 1004.98 1004.97 1005.61 1006.07 1006.03 1005.95 1006.00 1006.12 1006.51 1006.95 1007.59 1008.32 1008.77 1009.31 1009.75 1010.08 1010.03 1010.06 1010.17 1010.57 1010.89 1011.15 1011.35 1011.54 1011.81 1011.87 1012.03 1012.29 1012.45 1012.62 1012.82 1013.08 1013.34 1013.42 1013.35 1013.51 1013.67
1008.27 1008.04 1007.02 1006.20 1005.78 1005.89 1005.80 1005.85 1005.59 1005.68 1005.69 1005.24 1005.17 1005.15 1005.16 1005.48 1005.89 1006.07 1006.26 1006.35 1006.66 1006.98 1007.29 1007.65 1008.19 1008.70 1009.27 1009.58 1009.93 1010.16 1010.31 1010.28 1010.41 1010.82 1011.15 1011.35 1011.34 1011.68 1011.72 1011.98 1012.24 1012.49 1012.82 1013.04 1013.29 1013.38 1013.33 1013.47 1013.64
1008.10 1007.63 1006.93 1006.65 1006.52 1006.46 1006.37 1006.32 1006.16 1006.21 1005.94 1005.48 1005.14 1004.91 1005.06 1005.26 1005.61 1005.77 1006.02 1006.14 1006.39 1006.72 1007.16 1007.37 1007.60 1007.96 1008.19 1008.40 1008.91 1009.57 1010.05 1010.34 1010.61 1010.69 1010.73 1010.90 1010.75 1010.78 1011.17 1011.42 1011.85 1012.35 1012.70 1012.90 1013.12 1013.39 1013.46 1013.54 1013.62
1007.57 1007.53 1006.92 1006.80 1006.83 1006.99 1006.93 1006.71 1006.40 1006.30 1006.33 1005.98 1005.72 1005.54 1005.62 1005.82 1006.01 1005.96 1005.68 1005.58 1005.67 1005.80 1006.26 1006.64 1007.25 1007.66 1008.00 1008.33 1008.96 1009.34 1009.53 1009.85 1009.85 1009.98 1010.08 1010.20 1010.03 1010.13 1010.70 1011.07 1011.66 1012.07 1012.54 1012.94 1013.21 1013.38 1013.40 1013.33 1013.23
1007.93 1007.41 1007.15 1007.08 1006.97 1007.26 1007.18 1006.95 1006.76 1006.56 1006.25 1005.84 1005.65 1005.80 1006.07 1006.19 1006.09 1005.83 1005.67 1005.47 1005.27 1005.28 1005.53 1005.99 1006.46 1006.95 1007.69 1007.95 1008.42 1008.85 1009.35 1009.49 1009.64 1009.44 1009.30 1009.66 1010.02 1010.28 1010.51 1010.75 1011.21 1011.68 1012.12 1012.57 1012.94 1013.16 1013.10 1013.03 1012.76
1007.50 1007.34 1006.93 1006.95 1006.93 1007.11 1007.21 1007.02 1006.90 1006.24 1005.89 1005.70 1005.61 1005.80 1006.13 1005.92 1005.85 1005.95 1005.90 1005.47 1005.15 1005.14 1005.44 1005.67 1006.17 1006.55 1007.05 1007.60 1007.69 1008.12 1008.57 1008.76 1009.01 1009.24 1008.72 1009.07 1009.77 1010.13 1010.54 1010.70 1010.90 1011.28 1011.72 1012.16 1012.64 1012.86 1013.04 1013.16 1012.69
1007.36 1007.36 1007.14 1006.88 1006.73 1006.69 1006.69 1006.58 1006.52 1005.70 1005.37 1005.54 1005.65 1005.69 1005.56 1005.45 1005.68 1006.09 1006.14 1006.04 1005.83 1005.41 1005.04 1005.11 1005.57 1006.64 1006.40 1006.77 1006.78 1007.20 1007.81 1008.11 1008.17 1008.51 1008.43 1008.26 1008.94 1009.47 1009.93 1010.44 1010.79 1011.06 1011.53 1011.94 1012.30 1012.96 1013.33 1013.48 1013.30
1007.79 1007.71 1007.07 1006.30 1006.06 1006.23 1006.60 1006.64 1005.87 1005.13 1005.19 1005.46 1005.41 1005.29 1005.29 1005.51 1005.71 1006.13 1006.49 1006.86 1006.80 1006.36 1005.97 1005.73 1005.31 1005.53 1006.20 1006.68 1007.78 1006.95 1006.85 1007.41 1007.58 1007.91 1008.21 1008.21 1008.51 1008.89 1009.27 1009.87 1010.45 1010.97 1011.12 1011.54 1012.08 1012.76 1013.22 1013.44 1013.02
1008.00 1007.62 1006.84 1005.67 1005.93 1006.43 1006.85 1006.28 1005.57 1004.85 1005.32 1005.74 1005.61 1005.51 1005.55 1005.75 1006.03 1006.81 1007.26 1007.40 1007.40 1007.35 1006.72 1006.09 1005.82 1005.98 1006.12 1007.44 1005.67 1006.20 1006.49 1006.59 1007.21 1007.26 1007.28 1007.46 1007.91 1008.55 1009.26 1009.35 1010.13 1010.58 1011.21 1011.49 1012.14 1012.78 1013.28 1012.83 1012.57
1007.35 1007.07 1006.46 1005.77 1005.83 1006.18 1006.57 1006.02 1005.77 1005.41 1005.50 1005.73 1005.68 1005.67 1005.71 1005.92 1006.42 1007.28 1007.94 1008.16 1008.13 1008.02 1007.71 1006.99 1006.27 1006.00 1006.05 1006.65 1006.40 1005.37 1006.17 1006.48 1006.78 1006.45 1006.42 1006.48 1007.30 1007.71 1008.89 1009.26 1009.97 1010.43 1011.05 1011.48 1011.93 1012.30 1012.70 1013.04 1012.73
1007.53 1007.24 1006.64 1006.46 1006.19 1005.87 1005.89 1005.54 1005.44 1005.33 1005.34 1005.64 1005.65 1005.59 1005.83 1006.40 1007.19 1007.85 1008.51 1008.77 1008.74 1008.62 1008.45 1007.97 1007.16 1006.47 1005.87 1005.62 1005.32 1005.62 1005.87 1006.00 1006.51 1005.87 1007.72 1006.33 1006.69 1007.40 1008.39 1008.99 1009.60 1010.37 1011.01 1011.37 1011.85 1012.22 1012.37 1012.33 1012.72
1007.88 1007.78 1007.30 1006.79 1006.48 1006.11 1005.67 1005.02 1004.95 1005.13 1005.10 1005.16 1005.42 1005.95 1006.52 1007.20 1007.72 1008.27 1008.86 1009.01 1009.04 1009.05 1009.03 1008.68 1008.18 1007.32 1006.45 1006.04 1005.83 1005.01 1004.81 1005.19 1006.45 1006.13 1006.73 1005.94 1006.25 1006.78 1008.03 1008.30 1009.18 1009.96 1010.59 1011.15 1011.36 1011.67 1012.36 1012.71 1012.56
1008.32 1008.17 1007.54 1006.73 1006.51 1006.22 1005.72 1005.07 1005.01 1004.83 1004.40 1004.94 1005.57 1006.38 1007.13 1007.95 1008.45 1008.95 1009.15 1009.41 1009.52 1009.21 1009.18 1008.91 1008.42 1008.05 1007.10 1006.48 1005.71 1005.34 1004.38 1004.44 1005.11 1005.87 1005.88 1005.77 1005.68 1006.03 1006.93 1007.66 1008.84 1009.73 1010.48 1010.96 1011.26 1011.60 1012.35 1012.66 1012.83
1008.19 1008.24 1007.59 1007.22 1006.91 1006.53 1006.41 1004.80 1004.92 1004.50 1004.85 1005.32 1006.00 1006.94 1008.07 1008.84 1009.35 1009.70 1009.74 1009.78 1009.86 1009.81 1009.48 1008.88 1008.39 1008.05 1007.40 1006.73 1005.78 1004.91 1004.50 1004.15 1004.71 1005.29 1005.66 1005.66 1004.08 1006.01 1005.82 1006.97 1007.84 1009.29 1010.12 1010.97 1011.40 1011.78 1012.16 1012.95 1013.14
1007.70 1008.05 1007.81 1007.67 1007.92 1007.20 1007.49 1005.17 1005.51 1005.39 1005.87 1006.56 1007.05 1008.01 1009.01 1009.79 1010.24 1010.27 1010.20 1010.15 1010.04 1009.99 1009.75 1009.26 1008.49 1007.86 1007.41 1006.76 1006.00 1005.20 1005.14 1004.49 1004.36 1004.60 1004.69 1005.17 1005.48 1005.13 1005.85 1006.60 1007.57 1008.61 1009.69 1010.84 1011.24 1011.59 1012.07 1012.72 1013.28
1008.31 1008.53 1008.76 1008.88 1008.90 1008.70 1007.74 1007.81 1005.57 1005.82 1005.72 1006.83 1007.79 1008.91 1009.82 1010.56 1010.92 1010.92 1010.78 1010.45 1009.99 1010.06 1009.91 1009.42 1008.71 1007.97 1007.30 1006.85 1006.12 1005.43 1004.88 1004.12 1004.14 1004.15 1004.41 1005.22 1006.16 1005.99 1006.13 1006.73 1007.45 1008.39 1009.24 1010.10 1010.94 1011.41 1011.76 1012.28 1012.91
1009.58 1009.61 1009.62 1009.69 1009.90 1009.14 1008.49 1008.37 1006.71 1006.62 1006.23 1007.21 1008.53 1009.95 1010.68 1011.34 1011.31 1011.44 1011.00 1010.64 1010.60 1010.25 1009.98 1009.51 1008.85 1008.30 1007.35 1006.76 1006.24 1005.72 1005.01 1004.19 1004.21 1004.11 1004.55 1005.73 1006.37 1005.54 1005.67 1006.51 1007.58 1008.66 1008.99 1009.79 1010.51 1011.04 1011.50 1011.95 1012.44
1010.40 1010.65 1010.67 1010.27 1010.12 1009.15 1008.74 1008.35 1008.38 1008.50 1008.73 1009.13 1009.74 1010.82 1011.43 1011.74 1011.56 1011.77 1011.23 1010.81 1010.70 1010.56 1010.12 1009.52 1009.06 1008.66 1007.76 1007.02 1006.33 1005.70 1004.99 1004.48 1004.29 1004.03 1004.49 1005.71 1006.67 1007.97 1006.18 1006.29 1007.04 1008.19 1008.92 1009.40 1010.23 1011.04 1011.45 1011.93 1012.57
1012.17 1012.43 1012.54 1011.69 1011.43 1010.48 1010.33 1009.23 1009.07 1009.93 1010.32 1010.90 1011.63 1011.82 1012.00 1012.04 1011.86 1011.84 1011.62 1011.23 1010.95 1010.76 1010.22 1009.72 1009.13 1008.81 1008.13 1007.26 1006.62 1005.84 1004.99 1004.50 1004.38 1004.13 1004.51 1006.30 1008.11 1008.81 1008.58 1007.06 1006.73 1007.94 1008.58 1009.30 1010.35 1011.05 1011.63 1012.15 1012.76
1012.84 1013.05 1012.92 1012.70 1012.46 1011.92 1011.19 1010.12 1010.57 1011.10 1011.81 1012.29 1012.30 1012.35 1012.60 1012.59 1012.19 1012.04 1011.80 1011.41 1011.21 1010.87 1010.32 1009.69 1009.08 1008.74 1008.21 1007.48 1006.75 1006.01 1005.38 1004.91 1004.44 1004.49 1004.64 1006.07 1006.31 1007.02 1004.67 1007.39 1007.00 1007.71 1008.55 1009.53 1010.20 1011.07 1011.69 1012.38 1013.04
1013.73 1013.47 1013.64 1013.79 1013.73 1012.99 1012.01 1011.16 1012.17 1012.64 1013.56 1013.35 1013.22 1013.00 1013.16 1012.93 1012.54 1012.07 1011.77 1011.45 1011.22 1010.81 1010.07 1009.64 1009.05 1008.63 1008.25 1007.84 1007.11 1006.07 1005.66 1005.26 1005.09 1005.32 1005.61 1006.41 1006.43 1005.96 1008.89 1008.32 1006.99 1008.24 1008.70 1009.85 1010.16 1011.14 1011.89 1012.63 1013.33
1013.99 1014.18 1014.43 1014.81 1015.10 1014.72 1014.08 1013.14 1013.40 1014.12 1014.51 1014.04 1013.46 1013.41 1013.29 1012.57 1012.33 1012.14 1011.94 1011.56 1011.07 1010.36 1009.90 1009.56 1008.89 1008.41 1008.16 1007.92 1007.32 1006.35 1005.69 1005.79 1005.54 1005.71 1005.56 1006.93 1006.67 1007.03 1008.32 1009.07 1008.81 1008.88 1009.12 1010.13 1010.47 1011.46 1012.19 1012.82 1013.50
1014.94 1015.38 1015.84 1016.54 1016.48 1016.40 1015.85 1014.21 1013.12 1013.49 1013.79 1013.67 1013.40 1013.22 1013.05 1012.85 1012.69 1012.67 1012.50 1012.05 1011.27 1010.54 1009.83 1009.40 1008.78 1008.30 1008.13 1008.07 1007.45 1006.97 1005.99 1006.33 1006.06 1005.55 1005.43 1006.48 1006.04 1006.15 1007.28 1008.21 1008.93 1009.10 1009.80 1010.39 1011.06 1011.83 1012.56 1013.23 1013.96
Thickness
5794 5800 5801 5785 5753 5759 5761 5776 5798 5790 5794 5809 5812 5802 5794 5798 5786 5758 5801 5806 5808 5802 5794 5790 5789 5785 5779 5777 5772 5770 5769 5766 5763 5759 5758 5756 5754 5751 5751 5748 5748 5748 5747 5747 5746 5745 5743 5741 5740
5797 5803 5795 5779 5752 5749 5764 5789 5785 5790 5800 5809 5808 5807 5798 5783 5804 5792 5792 5803 5806 5802 5793 5788 5784 5781 5777 5774 5769 5767 5767 5764 5760 5758 5755 5753 5750 5749 5746 5743 5743 5742 5741 5741 5740 5738 5738 5737 5737
5797 5804 5778 5771 5765 5758 5761 5791 5790 5798 5805 5802 5800 5812 5803 5786 5804 5801 5804 5802 5802 5799 5792 5785 5780 5777 5773 5769 5765 5762 5761 5760 5757 5754 5752 5750 5747 5745 5744 5741 5738 5737 5736 5735 5735 5734 5732 5730 5731
5795 5790 5784 5758 5760 5782 5784 5789 5791 5791 5803 5806 5805 5790 5805 5808 5806 5806 5804 5802 5800 5798 5794 5784 5779 5773 5769 5765 5762 5759 5758 5755 5753 5751 5748 5746 5743 5740 5739 5738 5736 5734 5733 5732 5730 5729 5727 5727 5727
5793 5782 5760 5760 5770 5788 5794 5793 5791 5784 5793 5795 5796 5783 5785 5800 5811 5808 5800 5799 5795 5793 5790 5782 5778 5772 5767 5763 5758 5756 5753 5751 5749 5747 5745 5743 5739 5737 5736 5734 5733 5730 5730 5730 5727 5725 5725 5723 5722
5770 5778 5753 5754 5773 5785 5790 5792 5788 5786 5790 5790 5785 5782 5778 5799 5796 5795 5794 5791 5794 5788 5785 5778 5774 5769 5765 5761 5758 5754 5751 5748 5745 5743 5742 5740 5737 5736 5736 5731 5729 5728 5726 5726 5724 5722 5722 5721 5719
5766 5758 5751 5761 5764 5775 5782 5788 5778 5774 5776 5775 5785 5768 5771 5786 5791 5793 5790 5789 5786 5783 5777 5770 5764 5761 5759 5758 5754 5753 5751 5748 5744 5741 5739 5736 5735 5732 5731 5728 5727 5728 5724 5721 5721 5719 5718 5717 5715
5766 5761 5755 5762 5758 5758 5776 5778 5781 5774 5768 5787 5791 5765 5756 5778 5787 5789 5788 5786 5782 5778 5772 5768 5761 5757 5754 5751 5752 5752 5751 5747 5743 5740 5738 5736 5732 5731 5729 5726 5725 5724 5722 5718 5716 5715 5716 5714 5711
5774 5743 5742 5755 5760 5757 5775 5765 5781 5784 5770 5780 5783 5779 5782 5787 5785 5780 5776 5775 5774 5773 5772 5770 5765 5758 5752 5750 5746 5745 5744 5745 5744 5739 5735 5733 5733 5728 5728 5725 5722 5720 5716 5714 5711 5711 5711 5709 5706
5755 5743 5752 5764 5763 5755 5762 5763 5765 5762 5760 5765 5773 5784 5785 5783 5779 5771 5767 5765 5767 5766 5765 5767 5765 5762 5759 5756 5751 5745 5740 5737 5735 5735 5735 5732 5733 5732 5727 5724 5720 5715 5712 5710 5708 5704 5704 5703 5702
5760 5740 5760 5760 5762 5758 5753 5755 5765 5754 5744 5756 5754 5764 5767 5766 5763 5763 5766 5767 5767 5771 5769 5765 5761 5758 5754 5751 5745 5741 5740 5736 5735 5733 5733 5732 5734 5733 5728 5724 5717 5714 5709 5705 5700 5698 5699 5700 5699
5738 5753 5755 5754 5758 5750 5745 5754 5748 5750 5751 5762 5764 5764 5758 5753 5755 5760 5761 5763 5765 5765 5767 5768 5761 5758 5751 5746 5741 5736 5732 5730 5731 5732 5733 5729 5729 5728 5727 5723 5716 5712 5707 5702 5697 5696 5697 5695 5696
5741 5746 5755 5753 5751 5747 5747 5741 5740 5747 5755 5760 5761 5757 5749 5749 5755 5756 5756 5759 5764 5759 5753 5758 5758 5750 5746 5740 5739 5737 5731 5731 5726 5726 5731 5727 5723 5720 5718 5717 5714 5710 5704 5699 5695 5693 5693 5690 5693
5745 5742 5743 5746 5746 5747 5740 5740 5738 5748 5757 5752 5748 5745 5747 5746 5748 5749 5742 5746 5747 5749 5750 5747 5754 5742 5739 5735 5738 5734 5727 5724 5724 5725 5725 5728 5723 5721 5716 5712 5709 5705 5700 5695 5692 5689 5686 5683 5683
5738 5723 5733 5741 5746 5740 5738 5723 5727 5747 5749 5742 5739 5741 5741 5735 5737 5739 5733 5731 5729 5732 5736 5734 5737 5742 5734 5717 5717 5719 5727 5725 5726 5723 5717 5718 5717 5715 5714 5708 5703 5698 5697 5693 5689 5685 5681 5676 5680
5719 5721 5706 5738 5737 5730 5723 5704 5726 5741 5733 5726 5727 5727 5726 5721 5720 5718 5719 5715 5717 5715 5718 5724 5727 5726 5726 5710 5722 5723 5722 5725 5714 5711 5714 5716 5712 5708 5705 5704 5698 5695 5691 5689 5684 5676 5672 5671 5679
5718 5700 5712 5722 5728 5719 5709 5705 5721 5727 5720 5712 5711 5710 5709 5707 5705 5701 5700 5698 5698 5699 5700 5705 5711 5714 5714 5713 5718 5721 5716 5717 5708 5707 5712 5715 5709 5707 5699 5696 5690 5689 5686 5682 5679 5679 5666 5669 5675
5697 5698 5706 5696 5713 5708 5698 5698 5708 5714 5709 5701 5701 5701 5694 5692 5687 5684 5680 5680 5680 5679 5681 5685 5692 5700 5705 5706 5712 5708 5711 5710 5701 5677 5679 5709 5707 5702 5695 5691 5687 5680 5679 5677 5674 5669 5671 5672 5669
5696 5688 5683 5697 5707 5695 5692 5698 5701 5701 5697 5688 5687 5682 5673 5671 5672 5670 5664 5662 5661 5661 5661 5665 5671 5680 5689 5693 5693 5704 5710 5708 5692 5695 5658 5695 5698 5694 5686 5687 5681 5676 5673 5671 5672 5669 5663 5662 5667
5682 5669 5671 5687 5692 5684 5681 5683 5687 5690 5690 5682 5673 5660 5656 5652 5646 5644 5645 5643 5641 5645 5647 5650 5656 5662 5671 5679 5687 5691 5702 5705 5695 5691 5690 5695 5691 5690 5688 5683 5676 5671 5665 5665 5665 5664 5658 5658 5659
5670 5658 5662 5658 5671 5674 5660 5664 5670 5681 5664 5661 5655 5645 5636 5627 5619 5620 5623 5623 5626 5626 5630 5637 5644 5649 5657 5663 5674 5683 5690 5691 5691 5689 5686 5682 5661 5674 5690 5683 5677 5667 5661 5656 5656 5655 5655 5647 5649
5652 5664 5656 5649 5634 5624 5645 5613 5649 5661 5635 5629 5623 5617 5612 5606 5599 5600 5603 5602 5607 5610 5615 5619 5628 5637 5643 5651 5660 5668 5667 5673 5681 5685 5690 5684 5659 5679 5678 5675 5670 5666 5658 5649 5649 5650 5649 5646 5640
5637 5641 5632 5623 5611 5603 5623 5592 5627 5642 5638 5611 5594 5591 5590 5586 5582 5582 5585 5590 5595 5596 5598 5604 5614 5623 5632 5639 5647 5655 5661 5670 5673 5678 5682 5676 5662 5659 5665 5666 5665 5659 5653 5649 5645 5645 5646 5644 5639
5626 5615 5610 5603 5590 5572 5602 5591 5601 5607 5613 5600 5577 5572 5570 5568 5569 5570 5574 5579 5578 5582 5586 5591 5600 5609 5619 5628 5633 5641 5651 5660 5661 5666 5668 5656 5654 5663 5659 5660 5655 5650 5651 5647 5643 5642 5643 5642 5640
5599 5581 5559 5559 5559 5563 5596 5586 5573 5575 5578 5574 5561 5555 5555 5555 5556 5554 5561 5563 5566 5568 5573 5580 5587 5594 5605 5615 5623 5630 5640 5649 5653 5658 5659 5650 5645 5633 5637 5650 5653 5648 5645 5645 5640 5636 5636 5636 5632
5566 5559 5537 5523 5527 5539 5569 5554 5573 5558 5556 5549 5542 5539 5538 5537 5541 5545 5546 5549 5553 5557 5562 5567 5576 5583 5593 5605 5610 5619 5631 5637 5642 5649 5655 5637 5620 5622 5624 5638 5647 5639 5641 5638 5632 5630 5629 5628 5625
5550 5537 5545 5525 5530 5518 5534 5555 5536 5534 5527 5521 5521 5522 5521 5526 5531 5531 5534 5537 5540 5545 5551 5557 5565 5573 5583 5594 5602 5611 5620 5627 5636 5639 5640 5631 5633 5627 5647 5631 5634 5635 5633 5630 5630 5626 5623 5621 5617
5523 5533 5511 5517 5497 5498 5523 5538 5516 5502 5480 5501 5501 5505 5505 5509 5515 5520 5523 5526 5529 5533 5540 5548 5556 5565 5572 5582 5592 5602 5610 5617 5620 5622 5622 5621 5625 5631 5606 5615 5615 5622 5623 5621 5625 5620 5617 5613 5609
5510 5506 5506 5499 5494 5483 5483 5505 5496 5478 5476 5481 5492 5494 5492 5501 5506 5511 5513 5516 5519 5526 5530 5538 5549 5558 5564 5571 5582 5592 5602 5604 5610 5610 5613 5606 5615 5617 5607 5607 5607 5612 5616 5614 5617 5613 5610 5608 5604
5497 5489 5486 5461 5471 5468 5465 5479 5499 5489 5485 5484 5485 5484 5485 5490 5492 5493 5494 5499 5508 5515 5522 5531 5542 5552 5557 5561 5570 5575 5589 5592 5599 5607 5612 5604 5614 5617 5612 5607 5605 5609 5609 5608 5608 5605 5603 5601 5596